Вернуться в каталог

NOAA 16 DEB

АктивенSSO
NORAD 41401·DEBRIS·🇺🇸 United States

Запущен Sep 21, 2000 с Vandenberg Space Force Base

Loading…

Ближайшие Пролёты (ближайшие 24 часа)

TLE

СвежийSource: Space-Track

Эпоха: Sep 14, 2026, 13:16 UTC

1 41401U 00055KE  26257.55291508  .00002200  00000-0  96310-3 0  9993
2 41401  98.6627 291.0052 0016953 277.1539  82.7712 14.24669913546239

Отслеживайте NOAA 16 DEB в реальном времени с AllMySat

Download on the App Store